VOI9158 MMMM-MMZH

Flight info

Callsign VOI9158
Flight time 0h 31m
Altitude 18000
Route MLM5A MLM UJ17 VILTO VILTO2D
Aircraft A319/M-SDE3FGHIRWY/LB1

Departure

Time 2026-04-28 06:00
Airport General Francisco J. Mujica International Airport (MMMM)

Arrival

Time 2026-04-28 06:31
Airport Ixtapa-Zihuatanejo International Airport (MMZH)
Time Latitude Longitude Altitude Speed Heading
2026-04-28 05:45 19.84466 -101.02722 6054 ft 0 kts 144°
2026-04-28 05:50 19.84467 -101.02723 6054 ft 2 kts 144°
2026-04-28 05:50 19.84489 -101.02738 6054 ft 4 kts 151°
2026-04-28 05:51 19.84513 -101.02749 6054 ft 4 kts 173°
2026-04-28 05:51 19.84535 -101.02745 6054 ft 3 kts 232°
2026-04-28 05:51 19.84536 -101.02743 6054 ft 0 kts 234°
2026-04-28 05:55 19.84535 -101.02744 6054 ft 1 kts 234°
2026-04-28 05:55 19.84524 -101.02762 6054 ft 4 kts 234°
2026-04-28 05:55 19.84504 -101.02796 6054 ft 6 kts 249°
2026-04-28 05:55 19.84525 -101.02839 6054 ft 8 kts 320°
2026-04-28 05:56 19.84576 -101.02880 6054 ft 10 kts 324°
2026-04-28 05:56 19.84638 -101.02927 6054 ft 12 kts 325°
2026-04-28 05:56 19.84673 -101.02999 6054 ft 12 kts 246°
2026-04-28 05:56 19.84621 -101.03079 6054 ft 14 kts 239°
2026-04-28 05:57 19.84562 -101.03171 6054 ft 16 kts 233°
2026-04-28 05:57 19.84495 -101.03269 6056 ft 17 kts 234°
2026-04-28 05:57 19.84424 -101.03374 6056 ft 19 kts 234°
2026-04-28 05:57 19.84345 -101.03493 6055 ft 20 kts 234°
2026-04-28 05:58 19.84258 -101.03621 6055 ft 23 kts 234°
2026-04-28 05:58 19.84161 -101.03757 6053 ft 21 kts 220°
2026-04-28 05:58 19.84076 -101.03813 6053 ft 12 kts 264°
2026-04-28 05:58 19.84128 -101.03814 6053 ft 6 kts 54°
2026-04-28 05:59 19.84130 -101.03811 6053 ft 1 kts 54°
2026-04-28 05:59 19.84183 -101.03731 6053 ft 34 kts 55°
2026-04-28 05:59 19.84420 -101.03378 6056 ft 84 kts 54°
2026-04-28 05:59 19.84860 -101.02724 6055 ft 133 kts 54°
2026-04-28 06:00 19.85489 -101.01784 6059 ft 178 kts 55°
2026-04-28 06:00 19.86238 -101.00729 6678 ft 173 kts 56°
2026-04-28 06:00 19.86975 -100.99788 7524 ft 160 kts 54°
2026-04-28 06:00 19.87659 -100.98889 8089 ft 157 kts 58°
2026-04-28 06:01 19.88330 -100.97894 8205 ft 174 kts 58°
2026-04-28 06:01 19.89069 -100.96787 8356 ft 194 kts 56°
2026-04-28 06:01 19.89936 -100.95603 8498 ft 213 kts 54°
2026-04-28 06:01 19.90898 -100.94304 8632 ft 234 kts 54°
2026-04-28 06:02 19.91932 -100.92887 8911 ft 245 kts 54°
2026-04-28 06:02 19.92964 -100.91458 9507 ft 243 kts 54°
2026-04-28 06:02 19.93726 -100.89875 10017 ft 242 kts 78°
2026-04-28 06:02 19.93653 -100.88120 10526 ft 239 kts 110°
2026-04-28 06:03 19.92770 -100.86632 10905 ft 248 kts 136°
2026-04-28 06:03 19.91207 -100.85703 11093 ft 272 kts 166°
2026-04-28 06:03 19.89251 -100.85769 11292 ft 297 kts 198°
2026-04-28 06:03 19.87463 -100.87007 11458 ft 323 kts 228°
2026-04-28 06:04 19.86319 -100.89149 11604 ft 346 kts 250°
2026-04-28 06:04 19.85723 -100.91673 12019 ft 357 kts 260°
2026-04-28 06:04 19.85412 -100.94307 12593 ft 362 kts 264°
2026-04-28 06:04 19.85183 -100.96989 13229 ft 366 kts 264°
2026-04-28 06:05 19.84627 -100.99626 13833 ft 368 kts 248°
2026-04-28 06:05 19.83319 -101.01956 14411 ft 371 kts 228°
2026-04-28 06:05 19.81337 -101.03712 14965 ft 373 kts 210°
2026-04-28 06:05 19.78941 -101.04771 15481 ft 377 kts 193°
2026-04-28 06:06 19.76359 -101.05292 16026 ft 380 kts 189°
2026-04-28 06:06 19.73745 -101.05796 16575 ft 384 kts 189°
2026-04-28 06:06 19.71104 -101.06318 17119 ft 388 kts 190°
2026-04-28 06:06 19.68437 -101.06851 17649 ft 392 kts 190°
2026-04-28 06:07 19.65748 -101.07393 18158 ft 396 kts 190°
2026-04-28 06:07 19.63032 -101.07938 18686 ft 399 kts 190°
2026-04-28 06:07 19.60300 -101.08485 19325 ft 399 kts 190°
2026-04-28 06:07 19.57575 -101.09030 19968 ft 399 kts 189°
2026-04-28 06:08 19.54845 -101.09570 20213 ft 399 kts 190°
2026-04-28 06:08 19.52113 -101.10108 20279 ft 400 kts 190°
2026-04-28 06:08 19.49361 -101.10651 20297 ft 407 kts 190°
2026-04-28 06:08 19.46519 -101.11212 20300 ft 423 kts 190°
2026-04-28 06:09 19.43584 -101.11795 20290 ft 436 kts 190°
2026-04-28 06:09 19.40554 -101.12398 20288 ft 446 kts 190°
2026-04-28 06:09 19.37491 -101.13006 20286 ft 450 kts 190°
2026-04-28 06:09 19.34410 -101.13616 20287 ft 451 kts 190°
2026-04-28 06:10 19.31331 -101.14225 20279 ft 451 kts 190°
2026-04-28 06:10 19.28245 -101.14835 20275 ft 451 kts 190°
2026-04-28 06:10 19.25161 -101.15445 20275 ft 451 kts 190°
2026-04-28 06:10 19.22070 -101.16058 20275 ft 451 kts 190°
2026-04-28 06:11 19.18989 -101.16667 20275 ft 451 kts 190°
2026-04-28 06:11 19.15903 -101.17276 20275 ft 451 kts 190°
2026-04-28 06:11 19.12821 -101.17885 20275 ft 451 kts 190°
2026-04-28 06:11 19.09730 -101.18494 20273 ft 451 kts 190°
2026-04-28 06:12 19.06685 -101.19088 20272 ft 451 kts 190°
2026-04-28 06:12 19.03598 -101.19691 20273 ft 451 kts 189°
2026-04-28 06:12 19.00513 -101.20295 20270 ft 451 kts 190°
2026-04-28 06:12 18.97384 -101.20912 20268 ft 451 kts 190°
2026-04-28 06:13 18.94337 -101.21516 20267 ft 451 kts 190°
2026-04-28 06:13 18.91211 -101.22134 20264 ft 451 kts 190°
2026-04-28 06:13 18.88165 -101.22735 20262 ft 451 kts 190°
2026-04-28 06:13 18.85068 -101.23345 20260 ft 451 kts 189°
2026-04-28 06:14 18.81977 -101.23950 20262 ft 452 kts 189°
2026-04-28 06:14 18.78887 -101.24553 20261 ft 452 kts 189°
2026-04-28 06:14 18.75796 -101.25158 20259 ft 452 kts 190°
2026-04-28 06:14 18.72706 -101.25766 20255 ft 452 kts 190°
2026-04-28 06:15 18.69617 -101.26371 20256 ft 452 kts 189°
2026-04-28 06:15 18.66523 -101.26976 20253 ft 452 kts 189°
2026-04-28 06:15 18.63430 -101.27582 20253 ft 452 kts 190°
2026-04-28 06:15 18.60339 -101.28188 20249 ft 452 kts 189°
2026-04-28 06:16 18.57248 -101.28793 20249 ft 452 kts 190°
2026-04-28 06:16 18.54153 -101.29403 20252 ft 452 kts 190°
2026-04-28 06:16 18.51061 -101.30011 20245 ft 452 kts 190°
2026-04-28 06:16 18.47965 -101.30618 20246 ft 452 kts 190°
2026-04-28 06:17 18.44878 -101.31218 20238 ft 452 kts 189°
2026-04-28 06:17 18.41787 -101.31817 20233 ft 452 kts 189°
2026-04-28 06:17 18.38692 -101.32430 20227 ft 452 kts 190°
2026-04-28 06:18 18.32596 -101.33669 19350 ft 430 kts 190°
2026-04-28 06:18 18.29727 -101.34261 18900 ft 410 kts 190°
2026-04-28 06:18 18.26994 -101.34824 18425 ft 392 kts 189°
2026-04-28 06:18 18.24365 -101.35359 17902 ft 380 kts 189°
2026-04-28 06:19 18.21787 -101.35880 17375 ft 374 kts 189°
2026-04-28 06:19 18.19236 -101.36395 16859 ft 373 kts 189°
2026-04-28 06:19 18.16694 -101.36906 16333 ft 370 kts 189°
2026-04-28 06:19 18.14203 -101.37406 15778 ft 358 kts 189°
2026-04-28 06:20 18.11819 -101.37887 15209 ft 348 kts 189°
2026-04-28 06:20 18.09441 -101.38370 14622 ft 339 kts 189°
2026-04-28 06:20 18.07158 -101.38835 14047 ft 331 kts 188°
2026-04-28 06:20 18.04919 -101.39289 13471 ft 325 kts 188°
2026-04-28 06:21 18.02720 -101.39734 12894 ft 320 kts 189°
2026-04-28 06:21 18.00560 -101.40226 12318 ft 316 kts 191°
2026-04-28 06:21 17.98429 -101.40761 11739 ft 312 kts 191°
2026-04-28 06:21 17.96361 -101.41302 11168 ft 309 kts 192°
2026-04-28 06:22 17.94285 -101.41850 10593 ft 306 kts 192°
2026-04-28 06:22 17.92236 -101.42384 10017 ft 303 kts 192°
2026-04-28 06:22 17.90204 -101.42905 9439 ft 299 kts 193°
2026-04-28 06:22 17.88194 -101.43418 8860 ft 296 kts 193°
2026-04-28 06:23 17.86204 -101.43920 8286 ft 293 kts 193°
2026-04-28 06:23 17.84235 -101.44414 7745 ft 288 kts 193°
2026-04-28 06:23 17.82289 -101.44770 7296 ft 281 kts 181°
2026-04-28 06:23 17.80390 -101.44473 6848 ft 275 kts 161°
2026-04-28 06:24 17.78733 -101.43526 6389 ft 270 kts 141°
2026-04-28 06:24 17.77475 -101.42087 5937 ft 267 kts 128°
2026-04-28 06:24 17.76351 -101.40562 5489 ft 262 kts 128°
2026-04-28 06:24 17.75230 -101.39062 5034 ft 258 kts 129°
2026-04-28 06:25 17.74130 -101.37599 4654 ft 252 kts 129°
2026-04-28 06:25 17.73405 -101.36639 4414 ft 247 kts 129°
2026-04-28 06:25 17.72359 -101.35252 4068 ft 244 kts 129°
2026-04-28 06:25 17.71261 -101.33975 4002 ft 227 kts 142°
2026-04-28 06:26 17.69952 -101.33172 3837 ft 216 kts 160°
2026-04-28 06:26 17.68501 -101.32862 3454 ft 211 kts 179°
2026-04-28 06:26 17.67070 -101.32902 3119 ft 202 kts 182°
2026-04-28 06:26 17.65690 -101.32941 2751 ft 194 kts 182°
2026-04-28 06:27 17.64363 -101.32976 2400 ft 187 kts 182°
2026-04-28 06:27 17.63103 -101.33007 2209 ft 171 kts 182°
2026-04-28 06:27 17.61979 -101.33035 2206 ft 155 kts 183°
2026-04-28 06:27 17.60969 -101.33329 2103 ft 151 kts 210°
2026-04-28 06:28 17.60224 -101.34072 1771 ft 148 kts 238°
2026-04-28 06:28 17.59893 -101.35069 1455 ft 143 kts 263°
2026-04-28 06:28 17.59905 -101.36073 1229 ft 134 kts 270°
2026-04-28 06:28 17.59931 -101.37043 1172 ft 133 kts 270°
2026-04-28 06:29 17.59956 -101.38005 1121 ft 132 kts 270°
2026-04-28 06:29 17.59980 -101.38964 1061 ft 131 kts 270°
2026-04-28 06:29 17.60005 -101.39922 999 ft 131 kts 270°
2026-04-28 06:29 17.60030 -101.40884 855 ft 132 kts 270°
2026-04-28 06:30 17.60055 -101.41842 678 ft 131 kts 270°
2026-04-28 06:30 17.60080 -101.42794 491 ft 130 kts 270°
2026-04-28 06:30 17.60095 -101.43735 292 ft 128 kts 269°
2026-04-28 06:30 17.60101 -101.44662 121 ft 127 kts 270°
2026-04-28 06:31 17.60139 -101.45544 27 ft 111 kts 272°
2026-04-28 06:31 17.60163 -101.46212 20 ft 74 kts 271°
2026-04-28 06:31 17.60175 -101.46670 17 ft 43 kts 272°
2026-04-28 06:31 17.60198 -101.46881 15 ft 18 kts 283°
2026-04-28 06:32 17.60173 -101.46900 15 ft 9 kts 89°
2026-04-28 06:32 17.60187 -101.46824 17 ft 12 kts 71°
2026-04-28 06:32 17.60219 -101.46740 18 ft 13 kts 61°
2026-04-28 06:32 17.60266 -101.46650 18 ft 14 kts 62°
2026-04-28 06:33 17.60315 -101.46557 18 ft 15 kts 60°
2026-04-28 06:33 17.60372 -101.46477 19 ft 13 kts 30°
2026-04-28 06:33 17.60454 -101.46463 20 ft 9 kts 20°
2026-04-28 06:33 17.60483 -101.46408 19 ft 6 kts 66°
2026-04-28 06:34 17.60530 -101.46400 20 ft 6 kts 358°
2026-04-28 06:34 17.60537 -101.46400 19 ft 0 kts 359°